#timestamp,LO_Frequency,Hit,StdDev 
1578358815.8,286047000.0,N
1578358835.6,286047000.3,N
1578358855.5,286047000.5,N
1578358875.3,286047001.1,N
1578358895.2,286046999.3,N
1578358915.9,286047000.3,N
1578358935.7,286047000.8,N
1578358955.6,286046999.9,N
1578358975.4,286047002.2,Y
1578358995.3,286047001.8,P
1578359015.1,286047002.0,N
1578359016.0,286047002.0,N
1578359035.8,286047001.7,N
1578359055.7,286047001.8,N
1578359075.5,286047001.9,Y
1578359095.3,286047004.4,P
1578359115.2,286047003.6,N
1578359135.0,286047003.9,P
1578359135.9,286047003.9,Y
1578359155.8,286047000.5,P
1578359175.6,286047000.9,N
1578359195.4,286046996.6,N
1578359215.3,286046996.9,N
1578359235.1,286046997.2,N
1578359255.9,286046997.5,N
1578359275.7,286046994.9,N
1578359295.5,286046997.3,N
1578359315.4,286046997.1,N
1578359335.2,286046996.8,N
1578359355.0,286046999.1,N
1578359355.9,286046999.1,N
1578359375.8,286046999.5,N
1578359395.6,286046995.3,N
1578359415.5,286046996.7,N
1578359435.3,286046999.3,N
1578359455.1,286046997.4,N
1578359475.9,286046995.3,N
1578359495.7,286046995.1,N
1578359515.5,286046999.2,N
1578359535.4,286046996.6,N
1578359555.2,286046996.5,N
1578359575.1,286046996.5,N
1578359576.0,286046996.5,N
1578359595.8,286046997.0,N
1578359615.6,286046997.3,N
1578359635.5,286046999.1,N
1578359655.3,286046997.4,N
1578359675.1,286046995.5,N
1578359695.9,286046998.0,N
1578359715.7,286046996.7,N
1578359735.6,286046996.7,N
1578359755.4,286046996.5,N
1578359775.2,286046998.8,N
1578359795.1,286047001.2,N
1578359796.0,286047001.2,N
1578359815.8,286046998.4,N
1578359835.7,286046998.4,N
1578359855.5,286046996.6,N
1578359875.3,286046999.1,N
1578359895.2,286046996.7,N
1578359915.0,286046997.9,N
1578359915.9,286046997.9,N
1578359935.7,286046994.9,Y
1578359955.6,286046999.9,P
1578359975.4,286047000.3,N
1578359995.3,286047000.0,N
1578360015.1,286047001.9,N
1578360016.0,286047001.9,N
1578360035.8,286047000.5,N
1578360055.7,286047001.2,N
1578360075.5,286046999.6,N
1578360095.3,286046998.4,N
1578360115.2,286046998.5,N
1578360135.0,286046998.1,N
1578360135.9,286046998.1,N
1578360155.8,286046997.1,N
1578360175.6,286046997.7,N
1578360195.4,286046999.3,N
1578360215.3,286046997.0,N
1578360235.1,286047001.1,N
1578360255.8,286046998.2,N
1578360275.7,286046998.9,N
1578360295.5,286046998.8,N
1578360315.4,286047001.2,N
1578360335.2,286046999.4,N
1578360355.0,286046997.4,N
1578360355.9,286046997.4,N
1578360375.8,286046996.0,N
1578360395.6,286046994.5,Y
1578360415.4,286046993.4,P
1578360435.3,286046995.1,N
1578360455.1,286046999.1,N
1578360475.9,286046998.2,N
1578360495.7,286046998.2,N
1578360515.5,286047000.0,N
1578360535.4,286047002.8,N
1578360555.2,286046998.5,N
1578360575.0,286046999.3,N
1578360575.9,286046999.3,N
1578360595.8,286046997.0,N
1578360615.6,286046996.5,N
1578360635.5,286046999.9,N
1578360655.3,286047002.3,N
1578360675.1,286047002.8,N
1578360695.9,286047000.3,N
1578360715.7,286047000.1,N
1578360735.5,286047002.3,N
1578360755.4,286047002.1,N
1578360775.2,286047000.2,N
1578360795.1,286047002.2,N
1578360796.0,286047002.2,N
1578360815.8,286047002.4,N
1578360835.6,286047002.2,N
1578360855.5,286047002.3,N
1578360875.3,286047002.8,N
1578360895.1,286046999.7,N
1578360915.9,286047000.5,N
1578360935.7,286047002.6,N
1578360955.6,286047001.6,N
1578360975.4,286047003.5,N
1578360995.2,286047007.1,Y
1578361015.1,286047005.2,P
1578361016.0,286047005.2,N
1578361035.8,286047004.3,N
1578361055.6,286047003.7,N
1578361075.5,286047004.3,N
1578361095.3,286047003.5,N
1578361115.2,286047001.5,N
1578361135.9,286047002.2,N
1578361155.7,286047001.0,N
1578361175.6,286047001.0,N
1578361195.4,286047000.6,N
1578361215.2,286046999.8,N
1578361235.1,286047002.1,N
1578361236.0,286047002.1,N
1578361255.8,286047000.2,N
1578361275.7,286047003.1,N
1578361295.5,286047005.6,Y
1578361315.3,286047001.4,P
1578361335.2,286046999.9,N
1578361355.0,286046998.7,N
1578361355.9,286046998.7,N
1578361375.8,286047000.7,N
1578361395.6,286047000.6,N
1578361415.4,286047000.0,N
1578361435.3,286047002.8,N
1578361455.1,286047001.7,N
1578361475.8,286047011.9,Y
1578361495.7,286046999.7,P
1578361515.5,286047002.7,P
1578361535.4,286046999.7,N
1578361555.2,286047000.2,N
1578361575.0,286046999.8,N
1578361575.9,286046999.8,N
1578361595.8,286047002.8,N
1578361615.6,286047002.5,N
1578361635.4,286047005.4,Y
1578361655.3,286046999.8,P
1578361675.1,286047002.5,P
1578361695.9,286046999.7,N
1578361715.7,286047002.3,N
1578361735.5,286047000.5,N
1578361755.4,286047002.4,N
1578361775.2,286047001.5,N
1578361795.0,286047002.4,N
1578361795.9,286047002.4,N
1578361815.8,286047000.2,N
1578361835.6,286047002.2,N
1578361855.5,286047003.1,N
1578361875.3,286047001.9,N
1578361895.1,286047002.8,N
1578361915.9,286047002.1,N
1578361935.7,286047002.5,N
1578361955.5,286047002.5,N
1578361975.4,286047004.3,Y
1578361995.2,286047002.1,P
1578362015.1,286047002.5,P
1578362016.0,286047002.5,P
1578362035.8,286047000.2,N
1578362056.9,286047003.8,Y
1578362075.9,286047003.6,P
1578362095.7,286047002.0,N
1578362115.6,286047003.9,P
1578362135.4,286047005.9,Y
1578362155.2,286047000.7,P
1578362175.1,286047000.1,N
1578362176.0,286047000.1,N
1578362195.8,286047000.7,N
1578362215.6,286047000.7,N
1578362235.5,286047000.1,N
1578362255.3,286047002.7,N
1578362275.2,286047004.4,Y
1578362295.9,286047002.4,P
1578362315.7,286047001.9,N
1578362335.6,286047002.1,P
1578362355.4,286047003.6,Y
1578362375.3,286047002.8,P
1578362395.1,286047001.8,P
1578362396.0,286047001.8,P
